Location: Unspecified
(0.0000°N, 0.0000°E)
Time: 18:15:50
(UTC+00:00)

Vanguard 2 Rocket - All Passes

Search period start: 23 July 2014 00:00
Search period end: 02 August 2014 00:00
Orbit: 553 x 3337 km, 32.9° (Epoch: 22 July)

Date Brightness Start Highest point End Pass type
(mag) Time Alt. Az. Time Alt. Az. Time Alt. Az.
23 Jul - 00:43:58 10° SSW 00:50:53 45° SE 01:02:49 10° ENE visible
23 Jul - 02:56:22 10° WSW 03:06:10 59° NNW 03:23:05 10° NE visible
23 Jul - 05:13:53 10° WNW 05:25:53 28° NNW 05:41:31 10° NNE visible
23 Jul - 07:37:54 10° NW 07:50:02 19° N 08:02:07 10° NE daylight
23 Jul - 10:00:13 10° NNW 10:14:29 24° NNE 10:25:31 10° ENE daylight
23 Jul - 12:18:47 10° NW 12:34:27 49° NNE 12:43:37 10° E daylight
23 Jul - 14:38:13 10° WNW 14:49:53 54° SW 14:56:27 10° SE daylight
23 Jul - 23:47:14 10° SSW 23:52:31 25° SE 00:00:27 10° E visible
24 Jul - 01:58:07 10° WSW 02:06:29 78° NW 02:21:50 10° NE visible
24 Jul - 04:13:37 10° W 04:24:31 33° NNW 04:40:25 10° NE visible
24 Jul - 06:35:30 10° NW 06:47:14 20° N 07:00:10 10° NNE daylight
24 Jul - 08:58:42 10° NNW 09:12:24 21° N 09:24:11 10° NE daylight
24 Jul - 11:17:43 10° NW 11:34:06 40° NNE 11:44:39 10° E daylight
24 Jul - 13:36:38 10° WNW 13:51:09 82° SW 13:59:00 10° SE daylight
24 Jul - 15:59:33 10° WSW 16:04:41 16° SW 16:08:36 10° S daylight
24 Jul - 22:52:06 10° SSE 22:54:15 12° SE 22:56:44 10° ESE night (unlit)
25 Jul - 01:00:23 10° SW 01:07:27 74° SE 01:20:28 10° ENE visible
25 Jul - 03:14:12 10° W 03:23:49 40° NNW 03:39:20 10° NE visible
25 Jul - 05:33:45 10° NW 05:44:49 21° NNW 05:58:19 10° NNE visible
25 Jul - 07:57:04 10° NNW 08:09:48 19° N 08:21:58 10° NE daylight
25 Jul - 10:16:39 10° NW 10:33:05 33° NNE 10:44:55 10° E daylight
25 Jul - 12:35:12 10° NW 12:51:49 74° NNE 13:01:05 10° ESE daylight
25 Jul - 14:56:27 10° W 15:06:21 31° SW 15:12:32 10° SSE daylight
26 Jul - 00:03:07 10° SSW 00:08:59 45° SE 00:18:59 10° ENE visible
26 Jul - 02:15:29 10° WSW 02:23:46 51° NNW 02:38:18 10° NE visible
26 Jul - 04:32:51 10° WNW 04:43:01 24° NNW 04:56:44 10° NNE visible
26 Jul - 06:55:24 10° NW 07:06:57 18° N 07:19:08 10° NE daylight
26 Jul - 09:15:40 10° NNW 09:31:26 27° NNE 09:44:14 10° ENE daylight
26 Jul - 11:33:56 10° NW 11:51:48 57° NNE 12:02:37 10° ESE daylight
26 Jul - 13:54:05 10° WNW 14:07:47 52° SW 14:15:32 10° SE daylight
26 Jul - 23:06:28 10° S 23:10:52 24° SE 23:17:13 10° E night (unlit)
27 Jul - 01:17:19 10° WSW 01:24:22 69° NNW 01:37:21 10° NE visible
27 Jul - 03:32:48 10° WNW 03:41:56 28° NNW 03:55:25 10° NNE visible
27 Jul - 05:53:55 10° NW 06:04:14 18° N 06:16:11 10° NE daylight
27 Jul - 08:14:47 10° NNW 08:29:14 23° NNE 08:42:25 10° ENE daylight
27 Jul - 10:32:53 10° NW 10:51:08 45° NNE 11:03:29 10° E daylight
27 Jul - 12:52:05 10° WNW 13:08:43 77° SW 13:18:00 10° SE daylight
27 Jul - 15:16:03 10° W 15:22:55 18° SW 15:27:55 10° S daylight
27 Jul - 22:12:26 10° SE 22:12:46 10° SE 22:13:06 10° SE night (unlit)
28 Jul - 00:19:36 10° SW 00:25:36 80° SE 00:36:28 10° ENE visible
28 Jul - 02:33:31 10° W 02:41:31 34° NNW 02:54:25 10° NE visible
28 Jul - 04:52:49 10° NW 05:02:02 19° N 05:13:35 10° NNE visible
28 Jul - 07:14:01 10° NNW 07:26:37 20° N 07:39:28 10° NE daylight
28 Jul - 09:32:05 10° NW 09:49:52 37° NNE 10:03:30 10° E daylight
28 Jul - 11:50:27 10° NW 12:09:02 80° NE 12:19:57 10° ESE daylight
28 Jul - 14:12:28 10° W 14:24:16 33° SW 14:31:36 10° SSE daylight
28 Jul - 23:22:21 10° SSW 23:27:21 46° SE 23:35:35 10° ENE night (unlit)
29 Jul - 01:34:50 10° W 01:41:46 42° NNW 01:53:41 10° NE visible
29 Jul - 03:52:17 10° NW 04:00:31 20° NNW 04:11:37 10° NNE visible
29 Jul - 06:13:22 10° NNW 06:23:55 18° N 06:35:40 10° NE daylight
29 Jul - 08:31:34 10° NNW 08:48:04 30° NNE 09:02:28 10° ENE daylight
29 Jul - 10:49:12 10° NW 11:08:41 63° NNE 11:21:18 10° ESE daylight
29 Jul - 13:09:40 10° WNW 13:25:19 52° SW 13:34:28 10° SE daylight
29 Jul - 22:25:40 10° S 22:29:24 22° SE 22:34:29 10° E night (unlit)
30 Jul - 00:36:39 10° WSW 00:42:37 58° NNW 00:53:12 10° NE visible
30 Jul - 02:52:24 10° WNW 02:59:43 23° NNW 03:10:19 10° NNE visible
30 Jul - 05:12:50 10° NNW 05:21:28 16° N 05:31:42 10° NE visible
30 Jul - 07:31:21 10° NNW 07:45:52 24° NNE 08:00:09 10° ENE daylight
30 Jul - 09:48:21 10° NW 10:07:44 50° NNE 10:21:56 10° ESE daylight
30 Jul - 12:07:26 10° WNW 12:25:52 73° SW 12:36:46 10° SE daylight
30 Jul - 14:32:09 10° W 14:40:55 20° SW 14:47:08 10° S daylight
30 Jul - 23:38:55 10° SW 23:44:02 90° NW 23:52:54 10° NE visible
31 Jul - 01:53:07 10° WNW 01:59:37 26° NNW 02:09:36 10° NNE visible
31 Jul - 04:12:27 10° NW 04:19:33 16° N 04:28:23 10° NNE visible
31 Jul - 06:31:25 10° NNW 06:43:25 20° NNE 06:56:28 10° NE daylight
31 Jul - 08:47:55 10° NW 09:06:17 40° NNE 09:21:39 10° E daylight
31 Jul - 11:05:47 10° NW 11:25:47 86° NE 11:38:31 10° ESE daylight
31 Jul - 13:28:10 10° W 13:41:51 34° SW 13:50:32 10° SSE daylight
31 Jul - 22:41:34 10° SW 22:45:56 48° SE 22:52:40 10° ENE night (unlit)
01 Aug - 00:54:24 10° W 01:00:07 33° NNW 01:09:22 10° NE visible
01 Aug - 03:12:17 10° NW 03:18:21 16° N 03:26:11 10° NNE visible
01 Aug - 05:31:47 10° NNW 05:41:01 17° N 05:51:43 10° NE visible
01 Aug - 07:47:56 10° NNW 08:04:27 32° NNE 08:20:13 10° E daylight
01 Aug - 10:04:42 10° NW 10:25:06 68° NE 10:39:38 10° ESE daylight
01 Aug - 12:25:07 10° WNW 12:42:27 51° SW 12:53:10 10° SE daylight
01 Aug - 14:54:08 10° SW 14:58:02 12° SW 15:01:21 10° SSW daylight
01 Aug - 21:44:45 10° SSW 21:48:04 22° SE 21:52:16 10° E night (unlit)
01 Aug - 23:56:08 10° WSW 00:00:00 41° WNW 00:00:00 41° WNW night (unlit)
